Content
SEND FEEDBACK

Daily
Averages
Monthly
Summary
United States of America

RALEIGH, NORTH CAROLINA


Home > North America > United States > North Carolina
Elevation: 114 meters     Latitude: 35 52N     Longitude: 078 47W

WEATHER
 
SELECT A DAY
Number of Records: 196,857;   Date Range: 1/1/95 - 11/27/14
 
SHARE

PRINT THIS DATA

[ ← Previous Day ]
WEATHER ALMANAC - 1 SEPTEMBER, 2013
[ Next Day → ]
[ °F ]   °C
Weather ElementAverageHighLow
Temperature25.1 °C31.7 °C (12:51 pm)22 °C (8:26 pm)
Dewpoint21.8 °C23.9 °C (2:51 pm)20.6 °C (2:51 am)
Humidity83.2 %97 % (6:51 am)57 % (3:51 pm)
Barometer1011.2 hPa1012.9 hPa (10:51 am)1008.5 hPa (4:51 pm)
Wind Speed12.6 km/h38.9 km/h (6:34 pm)
Wind Gust50.1 km/h (6:34 pm)
Weather ElementAverage
Visibility11.7 km
Wind DirectionSSE (172.5 °)

Weather ElementTotal
Precipitation51.82 mm
Cooling Degree Days8.6 (Base 18.3)
Growing Degree Days16.9 (Base 10)
Averaged from 32 records on 1 September, 2013
WEATHER CONDITIONS BREAKOUT
WIND DIRECTION BREAKOUT
WEATHER BY HOUR - 1 SEPTEMBER, 2013
[ °F ]   °C
Local TimeTemperatureDewpointHumidityBarometerVisibilityWind DirectionWind SpeedGust SpeedPrecipitationEventsConditions
1:51 AM23.9 °C21.1 °C84 %1012.2 hPa16.1 kmSW (230°)5.6 km/hMostly Cloudy
2:51 AM23.9 °C20.6 °C82 %1011.9 hPa16.1 kmSSW (210°)9.3 km/hMostly Cloudy
3:51 AM23.3 °C21.1 °C87 %1011.5 hPa16.1 kmSSW (210°)7.4 km/hScattered Clouds
4:51 AM22.8 °C21.1 °C90 %1011.2 hPa16.1 kmWSW (240°)11.1 km/hPartly Cloudy
5:51 AM22.8 °C21.7 °C93 %1011.5 hPa16.1 kmSW (220°)9.3 km/hPartly Cloudy
6:51 AM22.2 °C21.7 °C97 %1011.9 hPa14.5 kmSW (230°)9.3 km/hScattered Clouds
7:51 AM23.3 °C22.2 °C93 %1012.5 hPa12.9 kmWSW (240°)11.1 km/hScattered Clouds
8:51 AM24.4 °C22.8 °C91 %1012.5 hPa12.9 kmWSW (240°)13 km/hScattered Clouds
9:51 AM26.7 °C22.2 °C76 %1012.5 hPa16.1 kmSW (220°)13 km/hScattered Clouds
10:51 AM28.9 °C22.8 °C69 %1012.9 hPa16.1 kmWSW (240°)14.8 km/hScattered Clouds
11:51 AM30 °C23.3 °C67 %1012.5 hPa16.1 kmSW (230°)18.5 km/hScattered Clouds
12:51 PM31.7 °C22.8 °C59 %1011.5 hPa16.1 kmSW (230°)20.4 km/h31.5 km/hScattered Clouds
1:51 PM31.1 °C22.2 °C59 %1010.8 hPa16.1 kmSW (230°)24.1 km/h31.5 km/hMostly Cloudy
2:51 PM31.1 °C23.9 °C65 %1010.2 hPa16.1 kmSW (220°)18.5 km/h0 mmRainLight Rain
3:51 PM31.7 °C22.2 °C57 %1009.1 hPa16.1 kmWSW (240°)14.8 km/h29.6 km/h0 mmMostly Cloudy
4:51 PM31.1 °C21.7 °C57 %1008.5 hPa16.1 kmWest (260°)13 km/hMostly Cloudy
5:05 PM31 °C22 °C58 %1009.1 hPa16.1 kmWNW (290°)11.1 km/hThunderstormThunderstorm
5:44 PM25 °C23 °C89 %1009.5 hPa1.3 kmVariable11.1 km/h0.25 mmRain-ThunderstormThunderstorms and Rain
5:51 PM24.4 °C22.8 °C91 %1008.8 hPa1.3 kmNNE (30°)7.4 km/h4.32 mmRain-ThunderstormThunderstorms and Rain
5:55 PM24 °C23 °C94 %1009.5 hPa6.4 kmNW (320°)11.1 km/h1.02 mmRain-ThunderstormLight Thunderstorms and Rain
6:34 PM23 °C21 °C88 %1010.8 hPa3.2 kmEast (100°)38.9 km/h50.1 km/h7.11 mmRain-ThunderstormHeavy Thunderstorms and Rain
6:43 PM23 °C21 °C88 %1010.5 hPa8 kmENE (70°)20.4 km/h50.1 km/h11.18 mmRain-ThunderstormLight Thunderstorms and Rain
6:51 PM23.3 °C21.1 °C87 %1010.2 hPa16.1 kmNE (50°)14.8 km/h11.18 mmThunderstormThunderstorm
7:26 PM23 °C22 °C94 %1012.2 hPa4 kmVariable11.1 km/h0.51 mmRain-ThunderstormThunderstorms and Rain
7:51 PM22.2 °C20.6 °C91 %1011.2 hPa4.8 kmCalm11.43 mmRain-ThunderstormThunderstorms and Rain
8:26 PM22 °C21 °C94 %1011.2 hPa14.5 kmSE (130°)7.4 km/h1.52 mmRainLight Rain
8:51 PM22.8 °C21.7 °C93 %1011.5 hPa1.6 kmSouth (180°)16.7 km/h40.7 km/h1.52 mmRainRain
8:57 PM23 °C21 °C88 %1011.5 hPa1.6 kmVariable7.4 km/h27.8 km/h0 mmRain-ThunderstormThunderstorms and Rain
9:08 PM22 °C21 °C94 %1011.5 hPa9.7 kmCalm0.76 mmRainLight Rain
9:51 PM22.2 °C21.7 °C97 %1010.5 hPa14.5 kmSW (220°)11.1 km/h1.02 mmOvercast
10:51 PM22.2 °C21.7 °C97 %1011.5 hPa12.9 kmWSW (240°)11.1 km/hOvercast
11:51 PM22.2 °C21.1 °C93 %1011.5 hPa12.9 kmSSW (200°)9.3 km/hMostly Cloudy
Hourly data recorded from KRDU, located 0 kilometers away from Raleigh, North Carolina







STORIES FROM OUR PARTNERS